Torna al catalogo

STARLINK-30355

AttivoComunicazioniVLEO
NORAD 57777·PAYLOAD·🇺🇸 United States

Lanciato Sep 4, 2023 da Cape Canaveral Space Force Station

Loading…

Prossimi Passaggi (prossime 24 ore)

TLE

AggiornatoSource: CelesTrak SupGP

Epoca: Sep 14, 2026, 13:57 UTC

1 57777C 23134G   26257.58173611 -.00066169  00000+0 -23969-2 0  2577
2 57777  43.0013 211.2162 0001257 261.2750 115.7801 15.27608082    12

Traccia STARLINK-30355 in tempo reale con AllMySat

Download on the App Store